| time (UTC) | temp F | wind direction | speed MPH | gust MPH | rain 1hr in | rain 24hr in | rain mn in | humidity % | barometer mb |
| 20260902155025 | 66 | 230 | 0.0 | 0.0 | 0.00 | 0.00 | 0.00 | 70 | 1000.7 |
| 20260902154530 | 66 | 256 | 0.0 | 0.0 | 0.00 | 0.00 | 0.00 | 71 | 1000.7 |
| 20260902154027 | 67 | 222 | 0.0 | 0.0 | 0.00 | 0.00 | 0.00 | 71 | 1000.8 |
| 20260902153543 | 67 | 204 | 0.0 | 0.0 | 0.00 | 0.00 | 0.00 | 71 | 1000.8 |
| 20260902153027 | 67 | 257 | 0.0 | 0.0 | 0.00 | 0.00 | 0.00 | 71 | 1000.8 |
| 20260902152559 | 67 | 257 | 0.0 | 0.0 | 0.00 | 0.00 | 0.00 | 69 | 1000.9 |
| 20260902152029 | 67 | 262 | 0.0 | 0.0 | 0.00 | 0.00 | 0.00 | 68 | 1000.9 |
| 20260902151532 | 67 | 218 | 0.0 | 0.0 | 0.00 | 0.00 | 0.00 | 67 | 1000.9 |
| 20260902151043 | 67 | 185 | 0.0 | 0.0 | 0.00 | 0.00 | 0.00 | 69 | 1000.9 |
| 20260902150530 | 67 | 249 | 0.0 | 0.0 | 0.00 | 0.00 | 0.00 | 69 | 1000.9 |
| 20260902150034 | 67 | 260 | 0.0 | 0.0 | 0.00 | 0.00 | 0.00 | 67 | 1000.9 |
| 20260902145526 | 67 | 239 | 0.0 | 0.0 | 0.00 | 0.00 | 0.00 | 66 | 1001.1 |
| 20260902145029 | 67 | 215 | 0.0 | 0.0 | 0.00 | 0.00 | 0.00 | 70 | 1001.1 |
| 20260902144541 | 67 | 218 | 0.0 | 0.0 | 0.00 | 0.00 | 0.00 | 66 | 1001.1 |
| 20260902144022 | 68 | 218 | 0.0 | 0.0 | 0.00 | 0.00 | 0.00 | 66 | 1001.1 |
| 20260902143528 | 68 | 226 | 0.0 | 0.0 | 0.00 | 0.00 | 0.00 | 63 | 1001.1 |
| 20260902143043 | 68 | 286 | 0.0 | 0.0 | 0.00 | 0.00 | 0.00 | 64 | 1001.1 |
| 20260902142525 | 68 | 286 | 0.0 | 0.0 | 0.00 | 0.00 | 0.00 | 61 | 1001.2 |
| 20260902142031 | 69 | 181 | 0.0 | 0.0 | 0.00 | 0.00 | 0.00 | 62 | 1001.2 |
| 20260902141542 | 69 | 221 | 0.0 | 0.0 | 0.00 | 0.00 | 0.00 | 60 | 1001.2 |
| 20260902141030 | 69 | 267 | 0.0 | 0.0 | 0.00 | 0.00 | 0.00 | 61 | 1001.3 |
| 20260902140533 | 70 | 273 | 0.0 | 0.0 | 0.00 | 0.00 | 0.00 | 57 | 1001.3 |
| 20260902140036 | 70 | 223 | 0.0 | 0.0 | 0.00 | 0.00 | 0.00 | 58 | 1001.3 |
| 20260902135548 | 71 | 197 | 0.0 | 0.0 | 0.00 | 0.00 | 0.00 | 57 | 1001.3 |
| 20260902135035 | 71 | 222 | 0.0 | 0.0 | 0.00 | 0.00 | 0.00 | 58 | 1001.4 |
| 20260902134546 | 71 | 254 | 0.0 | 0.0 | 0.00 | 0.00 | 0.00 | 54 | 1001.4 |
| 20260902134022 | 71 | 304 | 0.0 | 0.0 | 0.00 | 0.00 | 0.00 | 55 | 1001.5 |
| 20260902133527 | 71 | 219 | 0.0 | 0.0 | 0.00 | 0.00 | 0.00 | 54 | 1001.5 |
| 20260902133043 | 71 | 202 | 0.0 | 0.0 | 0.00 | 0.00 | 0.00 | 54 | 1001.5 |
| 20260902132526 | 71 | 287 | 0.0 | 0.0 | 0.00 | 0.00 | 0.00 | 54 | 1001.7 |
| 20260902132034 | 71 | 216 | 0.0 | 0.0 | 0.00 | 0.00 | 0.00 | 57 | 1001.7 |
| 20260902131546 | 71 | 218 | 1.0 | 0.0 | 0.00 | 0.00 | 0.00 | 54 | 1001.7 |
| 20260902131057 | 72 | 166 | 0.0 | 0.0 | 0.00 | 0.00 | 0.00 | 55 | 1001.7 |
| 20260902130523 | 72 | 215 | 0.0 | 0.0 | 0.00 | 0.00 | 0.00 | 57 | 1001.7 |
| 20260902130034 | 72 | 312 | 0.0 | 0.0 | 0.00 | 0.00 | 0.00 | 56 | 1001.7 |
| 20260902125534 | 72 | 280 | 0.0 | 0.0 | 0.00 | 0.00 | 0.00 | 55 | 1001.7 |
| 20260902125024 | 72 | 349 | 0.0 | 0.0 | 0.00 | 0.00 | 0.00 | 52 | 1001.7 |
| 20260902124522 | 72 | 16 | 0.0 | 0.0 | 0.00 | 0.00 | 0.00 | 54 | 1001.7 |
| 20260902124054 | 72 | 288 | 0.0 | 0.0 | 0.00 | 0.00 | 0.00 | 55 | 1001.8 |
| 20260902123539 | 72 | 317 | 1.0 | 0.0 | 0.00 | 0.00 | 0.00 | 56 | 1001.8 |
| 20260902123052 | 71 | 264 | 0.0 | 0.0 | 0.00 | 0.00 | 0.00 | 54 | 1001.8 |
| 20260902122535 | 71 | 201 | 0.0 | 0.0 | 0.00 | 0.00 | 0.00 | 57 | 1001.9 |
| 20260902122047 | 71 | 257 | 1.0 | 0.0 | 0.00 | 0.00 | 0.00 | 57 | 1001.9 |
| 20260902121529 | 71 | 109 | 0.0 | 0.0 | 0.00 | 0.00 | 0.00 | 55 | 1001.9 |
| 20260902121032 | 71 | 301 | 0.0 | 0.0 | 0.00 | 0.00 | 0.00 | 58 | 1001.9 |
| 20260902120551 | 71 | 247 | 0.0 | 0.0 | 0.00 | 0.00 | 0.00 | 61 | 1001.9 |
| 20260902120027 | 71 | 153 | 0.0 | 0.0 | 0.00 | 0.00 | 0.00 | 55 | 1001.9 |
| 20260902115528 | 71 | 190 | 0.0 | 0.0 | 0.00 | 0.00 | 0.00 | 54 | 1002.0 |
| 20260902115047 | 71 | 211 | 0.0 | 0.0 | 0.00 | 0.00 | 0.00 | 55 | 1002.0 |
| 20260902114529 | 72 | 238 | 0.0 | 0.0 | 0.00 | 0.00 | 0.00 | 53 | 1002.0 |
| 20260902114039 | 72 | 254 | 0.0 | 0.0 | 0.00 | 0.00 | 0.00 | 54 | 1002.2 |
| 20260902113525 | 72 | 253 | 0.0 | 0.0 | 0.00 | 0.00 | 0.00 | 54 | 1002.2 |
| 20260902113030 | 72 | 325 | 0.0 | 0.0 | 0.00 | 0.00 | 0.00 | 54 | 1002.2 |
| 20260902112531 | 72 | 276 | 0.0 | 0.0 | 0.00 | 0.00 | 0.00 | 52 | 1002.3 |
| 20260902112037 | 71 | 341 | 0.0 | 0.0 | 0.00 | 0.00 | 0.00 | 55 | 1002.3 |
| 20260902111521 | 71 | 214 | 0.0 | 0.0 | 0.00 | 0.00 | 0.00 | 55 | 1002.3 |
| 20260902111037 | 72 | 304 | 0.0 | 0.0 | 0.00 | 0.00 | 0.00 | 51 | 1002.3 |
| 20260902110550 | 71 | 308 | 0.0 | 0.0 | 0.00 | 0.00 | 0.00 | 54 | 1002.3 |
| 20260902110025 | 71 | 218 | 0.0 | 0.0 | 0.00 | 0.00 | 0.00 | 54 | 1002.3 |
| 20260902105526 | 71 | 287 | 0.0 | 0.0 | 0.00 | 0.00 | 0.00 | 57 | 1002.3 |
| 20260902105035 | 70 | 232 | 0.0 | 0.0 | 0.00 | 0.00 | 0.00 | 56 | 1002.3 |
| 20260902104522 | 70 | 239 | 0.0 | 0.0 | 0.00 | 0.00 | 0.00 | 56 | 1002.3 |
| 20260902104023 | 70 | 235 | 0.0 | 0.0 | 0.00 | 0.00 | 0.00 | 56 | 1002.3 |
| 20260902103535 | 70 | 271 | 0.0 | 0.0 | 0.00 | 0.00 | 0.00 | 58 | 1002.3 |
| 20260902103058 | 70 | 211 | 0.0 | 0.0 | 0.00 | 0.00 | 0.00 | 56 | 1002.3 |
| 20260902102528 | 70 | 206 | 0.0 | 0.0 | 0.00 | 0.00 | 0.00 | 56 | 1002.4 |
| 20260902102055 | 70 | 115 | 0.0 | 0.0 | 0.00 | 0.00 | 0.00 | 57 | 1002.4 |
| 20260902101548 | 69 | 235 | 0.0 | 0.0 | 0.00 | 0.00 | 0.00 | 58 | 1002.4 |
| 20260902101032 | 69 | 278 | 0.0 | 0.0 | 0.00 | 0.00 | 0.00 | 58 | 1002.4 |
| 20260902100522 | 69 | 223 | 0.0 | 0.0 | 0.00 | 0.00 | 0.00 | 57 | 1002.4 |
| 20260902100038 | 69 | 204 | 0.0 | 0.0 | 0.00 | 0.00 | 0.00 | 62 | 1002.4 |
| 20260902095525 | 69 | 222 | 0.0 | 0.0 | 0.00 | 0.00 | 0.00 | 59 | 1002.4 |
| 20260902095104 | 68 | 222 | 0.0 | 0.0 | 0.00 | 0.00 | 0.00 | 56 | 1002.4 |
| 20260902094523 | 69 | 239 | 0.0 | 0.0 | 0.00 | 0.00 | 0.00 | 58 | 1002.4 |
| 20260902094027 | 69 | 216 | 0.0 | 0.0 | 0.00 | 0.00 | 0.00 | 59 | 1002.4 |
| 20260902093542 | 68 | 245 | 0.0 | 0.0 | 0.00 | 0.00 | 0.00 | 60 | 1002.4 |
| 20260902093051 | 68 | 208 | 0.0 | 0.0 | 0.00 | 0.00 | 0.00 | 58 | 1002.4 |
| 20260902092602 | 68 | 335 | 0.0 | 0.0 | 0.00 | 0.00 | 0.00 | 59 | 1002.4 |
| 20260902092024 | 67 | 318 | 0.0 | 0.0 | 0.00 | 0.00 | 0.00 | 60 | 1002.4 |
| 20260902091529 | 67 | 233 | 0.0 | 0.0 | 0.00 | 0.00 | 0.00 | 65 | 1002.4 |
| 20260902091042 | 66 | 254 | 0.0 | 0.0 | 0.00 | 0.00 | 0.00 | 64 | 1002.4 |
| 20260902090524 | 66 | 230 | 0.0 | 0.0 | 0.00 | 0.00 | 0.00 | 63 | 1002.4 |
| 20260902090034 | 66 | 223 | 0.0 | 0.0 | 0.00 | 0.00 | 0.00 | 60 | 1002.4 |
| 20260902085524 | 67 | 263 | 0.0 | 0.0 | 0.00 | 0.00 | 0.00 | 61 | 1002.5 |
| 20260902085026 | 67 | 226 | 0.0 | 0.0 | 0.00 | 0.00 | 0.00 | 64 | 1002.5 |
| 20260902084540 | 67 | 116 | 0.0 | 0.0 | 0.00 | 0.00 | 0.00 | 60 | 1002.5 |
| 20260902084043 | 67 | 274 | 0.0 | 0.0 | 0.00 | 0.00 | 0.00 | 60 | 1002.5 |
| 20260902083546 | 67 | 236 | 0.0 | 0.0 | 0.00 | 0.00 | 0.00 | 64 | 1002.5 |
| 20260902083101 | 67 | 188 | 0.0 | 0.0 | 0.00 | 0.00 | 0.00 | 61 | 1002.5 |
| 20260902082524 | 67 | 253 | 0.0 | 0.0 | 0.00 | 0.00 | 0.00 | 61 | 1002.5 |
| 20260902082037 | 66 | 249 | 0.0 | 0.0 | 0.00 | 0.00 | 0.00 | 63 | 1002.4 |
| 20260902081523 | 66 | 278 | 0.0 | 0.0 | 0.00 | 0.00 | 0.00 | 62 | 1002.4 |
| 20260902081027 | 66 | 277 | 0.0 | 0.0 | 0.00 | 0.00 | 0.00 | 65 | 1002.4 |
| 20260902080600 | 66 | 336 | 0.0 | 0.0 | 0.00 | 0.00 | 0.00 | 64 | 1002.4 |
| 20260902080024 | 66 | 226 | 0.0 | 0.0 | 0.00 | 0.00 | 0.00 | 65 | 1002.4 |
| 20260902075535 | 66 | 223 | 0.0 | 0.0 | 0.00 | 0.00 | 0.00 | 65 | 1002.4 |
| 20260902075020 | 65 | 201 | 0.0 | 0.0 | 0.00 | 0.00 | 0.00 | 67 | 1002.4 |
| 20260902074533 | 65 | 342 | 0.0 | 0.0 | 0.00 | 0.00 | 0.00 | 67 | 1002.4 |
| 20260902074035 | 64 | 240 | 0.0 | 0.0 | 0.00 | 0.00 | 0.00 | 69 | 1002.4 |
| 20260902073521 | 64 | 182 | 0.0 | 0.0 | 0.00 | 0.00 | 0.00 | 68 | 1002.4 |
| 20260902073037 | 64 | 290 | 0.0 | 0.0 | 0.00 | 0.00 | 0.00 | 71 | 1002.4 |
| 20260902072522 | 64 | 252 | 0.0 | 0.0 | 0.00 | 0.00 | 0.00 | 72 | 1002.4 |
| 20260902072022 | 63 | 269 | 0.0 | 0.0 | 0.00 | 0.00 | 0.00 | 72 | 1002.4 |
| 20260902071531 | 63 | 280 | 0.0 | 0.0 | 0.00 | 0.00 | 0.00 | 74 | 1002.4 |
| 20260902071035 | 62 | 199 | 0.0 | 0.0 | 0.00 | 0.00 | 0.00 | 76 | 1002.4 |
| 20260902070520 | 62 | 253 | 0.0 | 0.0 | 0.00 | 0.00 | 0.00 | 76 | 1002.4 |
| 20260902070031 | 62 | 212 | 0.0 | 0.0 | 0.00 | 0.00 | 0.00 | 78 | 1002.4 |
| 20260902065555 | 61 | 171 | 0.0 | 0.0 | 0.00 | 0.00 | 0.00 | 80 | 1002.4 |
| 20260902065040 | 61 | 2 | 0.0 | 0.0 | 0.00 | 0.00 | 0.00 | 82 | 1002.4 |
| 20260902064524 | 61 | 199 | 0.0 | 0.0 | 0.00 | 0.00 | 0.00 | 83 | 1002.4 |
| 20260902064026 | 60 | 194 | 0.0 | 0.0 | 0.00 | 0.00 | 0.00 | 86 | 1002.3 |
| 20260902063546 | 60 | 304 | 0.0 | 0.0 | 0.00 | 0.00 | 0.00 | 88 | 1002.3 |
| 20260902063023 | 59 | 184 | 0.0 | 0.0 | 0.00 | 0.00 | 0.00 | 90 | 1002.3 |
| 20260902062536 | 59 | 137 | 0.0 | 0.0 | 0.00 | 0.00 | 0.00 | 93 | 1002.3 |
| 20260902062032 | 58 | 233 | 0.0 | 0.0 | 0.00 | 0.00 | 0.00 | 95 | 1002.3 |
| 20260902061533 | 57 | 233 | 0.0 | 0.0 | 0.00 | 0.00 | 0.00 | 96 | 1002.3 |
| 20260902061043 | 57 | 229 | 0.0 | 0.0 | 0.00 | 0.00 | 0.00 | 99 | 1002.3 |
| 20260902060522 | 56 | 253 | 0.0 | 0.0 | 0.00 | 0.00 | 0.00 | 100 | 1002.3 |
| 20260902060034 | 56 | 260 | 0.0 | 0.0 | 0.00 | 0.00 | 0.00 | 100 | 1002.3 |
| 20260902055538 | 55 | 257 | 0.0 | 0.0 | 0.00 | 0.00 | 0.00 | 100 | 1002.2 |
| 20260902055043 | 55 | 228 | 0.0 | 0.0 | 0.00 | 0.00 | 0.00 | 100 | 1002.2 |
| 20260902054548 | 55 | 209 | 0.0 | 0.0 | 0.00 | 0.00 | 0.00 | 100 | 1002.2 |
| 20260902054046 | 54 | 223 | 0.0 | 0.0 | 0.00 | 0.00 | 0.00 | 100 | 1002.1 |
| 20260902053535 | 54 | 219 | 0.0 | 0.0 | 0.00 | 0.00 | 0.00 | 100 | 1002.1 |
| 20260902053020 | 53 | 283 | 0.0 | 0.0 | 0.00 | 0.00 | 0.00 | 100 | 1002.1 |
| 20260902052551 | 53 | 212 | 0.0 | 0.0 | 0.00 | 0.00 | 0.00 | 100 | 1002.1 |
| 20260902052034 | 52 | 276 | 0.0 | 0.0 | 0.00 | 0.00 | 0.00 | 100 | 1002.1 |
| 20260902051528 | 51 | 174 | 0.0 | 0.0 | 0.00 | 0.00 | 0.00 | 100 | 1002.0 |
| 20260902051030 | 50 | 222 | 0.0 | 0.0 | 0.00 | 0.00 | 0.00 | 100 | 1002.0 |
| 20260902050530 | 50 | 202 | 0.0 | 0.0 | 0.00 | 0.00 | 0.00 | 100 | 1002.0 |
| 20260902050046 | 50 | 262 | 0.0 | 0.0 | 0.00 | 0.00 | 0.00 | 100 | 1002.0 |
| 20260902045550 | 49 | 293 | 0.0 | 0.0 | 0.00 | 0.00 | 0.00 | 100 | 1002.1 |
| 20260902045043 | 49 | 232 | 0.0 | 0.0 | 0.00 | 0.00 | 0.00 | 100 | 1002.1 |
| 20260902044527 | 49 | 230 | 0.0 | 0.0 | 0.00 | 0.00 | 0.00 | 100 | 1002.1 |
| 20260902044031 | 49 | 212 | 0.0 | 0.0 | 0.00 | 0.00 | 0.00 | 100 | 1002.0 |
| 20260902043527 | 48 | 221 | 0.0 | 0.0 | 0.00 | 0.00 | 0.00 | 100 | 1002.0 |
| 20260902043032 | 48 | 221 | 0.0 | 0.0 | 0.00 | 0.00 | 0.00 | 100 | 1002.0 |
| 20260902042606 | 48 | 226 | 0.0 | 0.0 | 0.00 | 0.00 | 0.00 | 100 | 1002.1 |
| 20260902042055 | 48 | 254 | 0.0 | 0.0 | 0.00 | 0.00 | 0.00 | 100 | 1002.1 |
| 20260902041535 | 48 | 226 | 0.0 | 0.0 | 0.00 | 0.00 | 0.00 | 100 | 1002.1 |
| 20260902041024 | 48 | 232 | 0.0 | 0.0 | 0.00 | 0.00 | 0.00 | 100 | 1002.0 |
| 20260902040538 | 48 | 232 | 0.0 | 0.0 | 0.00 | 0.00 | 0.00 | 100 | 1002.0 |
| 20260902040025 | 48 | 254 | 0.0 | 0.0 | 0.00 | 0.00 | 0.00 | 100 | 1002.0 |
| 20260902035531 | 48 | 254 | 0.0 | 0.0 | 0.00 | 0.00 | 0.00 | 100 | 1002.1 |
| 20260902035026 | 48 | 240 | 0.0 | 0.0 | 0.00 | 0.00 | 0.00 | 100 | 1002.1 |
| 20260902034534 | 48 | 266 | 0.0 | 0.0 | 0.00 | 0.00 | 0.00 | 100 | 1002.1 |
| 20260902034051 | 48 | 259 | 0.0 | 0.0 | 0.00 | 0.00 | 0.00 | 100 | 1002.1 |
| 20260902033536 | 48 | 247 | 0.0 | 0.0 | 0.00 | 0.00 | 0.00 | 100 | 1002.1 |
| 20260902033023 | 48 | 246 | 0.0 | 0.0 | 0.00 | 0.00 | 0.00 | 100 | 1002.1 |
| 20260902032558 | 48 | 208 | 0.0 | 0.0 | 0.00 | 0.00 | 0.00 | 100 | 1002.1 |
| 20260902032021 | 48 | 214 | 0.0 | 0.0 | 0.00 | 0.00 | 0.00 | 100 | 1002.1 |
| 20260902031535 | 48 | 214 | 0.0 | 0.0 | 0.00 | 0.00 | 0.00 | 100 | 1002.1 |
| 20260902031035 | 48 | 222 | 0.0 | 0.0 | 0.00 | 0.00 | 0.00 | 100 | 1002.1 |
| 20260902030521 | 48 | 252 | 0.0 | 0.0 | 0.00 | 0.00 | 0.00 | 100 | 1002.1 |
| 20260902030100 | 48 | 238 | 0.0 | 0.0 | 0.00 | 0.00 | 0.00 | 100 | 1002.1 |
| 20260902025521 | 48 | 233 | 0.0 | 0.0 | 0.00 | 0.00 | 0.00 | 100 | 1002.2 |
| 20260902025027 | 48 | 342 | 0.0 | 0.0 | 0.00 | 0.00 | 0.00 | 100 | 1002.2 |
| 20260902024543 | 48 | 257 | 0.0 | 0.0 | 0.00 | 0.00 | 0.00 | 100 | 1002.2 |
| 20260902024024 | 48 | 339 | 0.0 | 0.0 | 0.00 | 0.00 | 0.00 | 100 | 1002.2 |
| 20260902023532 | 48 | 277 | 0.0 | 0.0 | 0.00 | 0.00 | 0.00 | 100 | 1002.2 |
| 20260902023048 | 48 | 201 | 0.0 | 0.0 | 0.00 | 0.00 | 0.00 | 100 | 1002.2 |
| 20260902022551 | 48 | 228 | 0.0 | 0.0 | 0.00 | 0.00 | 0.00 | 100 | 1002.3 |
| 20260902022035 | 48 | 211 | 0.0 | 0.0 | 0.00 | 0.00 | 0.00 | 100 | 1002.3 |
| 20260902021528 | 49 | 190 | 0.0 | 0.0 | 0.00 | 0.00 | 0.00 | 100 | 1002.3 |
| 20260902021034 | 48 | 246 | 0.0 | 0.0 | 0.00 | 0.00 | 0.00 | 100 | 1002.3 |
| 20260902020547 | 49 | 238 | 0.0 | 0.0 | 0.00 | 0.00 | 0.00 | 100 | 1002.3 |
| 20260902020033 | 49 | 238 | 0.0 | 0.0 | 0.00 | 0.00 | 0.00 | 100 | 1002.3 |
| 20260902015546 | 49 | 247 | 0.0 | 0.0 | 0.00 | 0.00 | 0.00 | 100 | 1002.3 |
| 20260902015032 | 49 | 249 | 0.0 | 0.0 | 0.00 | 0.00 | 0.00 | 100 | 1002.3 |
| 20260902014545 | 49 | 236 | 0.0 | 0.0 | 0.00 | 0.00 | 0.00 | 100 | 1002.3 |
| 20260902014031 | 49 | 197 | 0.0 | 0.0 | 0.00 | 0.00 | 0.00 | 100 | 1002.4 |
| 20260902013536 | 49 | 286 | 0.0 | 0.0 | 0.00 | 0.00 | 0.00 | 100 | 1002.4 |
| 20260902013024 | 49 | 242 | 0.0 | 0.0 | 0.00 | 0.00 | 0.00 | 100 | 1002.4 |
| 20260902012536 | 49 | 300 | 0.0 | 0.0 | 0.00 | 0.00 | 0.00 | 100 | 1002.4 |
| 20260902012027 | 49 | 294 | 0.0 | 0.0 | 0.00 | 0.00 | 0.00 | 100 | 1002.4 |
| 20260902011533 | 49 | 274 | 0.0 | 0.0 | 0.00 | 0.00 | 0.00 | 100 | 1002.4 |
| 20260902011044 | 49 | 294 | 0.0 | 0.0 | 0.00 | 0.00 | 0.00 | 100 | 1002.4 |
| 20260902010529 | 49 | 269 | 0.0 | 0.0 | 0.00 | 0.00 | 0.00 | 100 | 1002.4 |
| 20260902010031 | 49 | 29 | 0.0 | 0.0 | 0.00 | 0.00 | 0.00 | 100 | 1002.4 |
| 20260902005545 | 49 | 205 | 0.0 | 0.0 | 0.00 | 0.00 | 0.00 | 100 | 1002.4 |
| 20260902005049 | 49 | 284 | 0.0 | 0.0 | 0.00 | 0.00 | 0.00 | 100 | 1002.4 |
| 20260902004531 | 49 | 245 | 0.0 | 0.0 | 0.00 | 0.00 | 0.00 | 100 | 1002.4 |
| 20260902004041 | 49 | 243 | 0.0 | 0.0 | 0.00 | 0.00 | 0.00 | 100 | 1002.4 |
| 20260902003523 | 49 | 192 | 0.0 | 0.0 | 0.00 | 0.00 | 0.00 | 100 | 1002.4 |
| 20260902003102 | 49 | 247 | 0.0 | 0.0 | 0.00 | 0.00 | 0.00 | 100 | 1002.4 |
| 20260902002530 | 49 | 168 | 0.0 | 0.0 | 0.00 | 0.00 | 0.00 | 100 | 1002.4 |
| 20260902002057 | 49 | 236 | 0.0 | 0.0 | 0.00 | 0.00 | 0.00 | 100 | 1002.4 |
| 20260902001529 | 49 | 236 | 0.0 | 0.0 | 0.00 | 0.00 | 0.00 | 100 | 1002.4 |
| 20260902001035 | 49 | 225 | 0.0 | 0.0 | 0.00 | 0.00 | 0.00 | 100 | 1002.4 |
| 20260902000526 | 49 | 184 | 0.0 | 0.0 | 0.00 | 0.00 | 0.00 | 100 | 1002.4 |
| 20260902000028 | 49 | 230 | 0.0 | 0.0 | 0.00 | 0.00 | 0.00 | 100 | 1002.4 |
| 20260901235543 | 49 | 151 | 0.0 | 0.0 | 0.00 | 0.00 | 0.00 | 100 | 1002.4 |
| 20260901235027 | 49 | 277 | 0.0 | 0.0 | 0.00 | 0.00 | 0.00 | 100 | 1002.4 |
| 20260901234527 | 49 | 225 | 0.0 | 0.0 | 0.00 | 0.00 | 0.00 | 100 | 1002.4 |
| 20260901234037 | 49 | 146 | 0.0 | 0.0 | 0.00 | 0.00 | 0.00 | 100 | 1002.4 |
| 20260901233543 | 49 | 190 | 0.0 | 0.0 | 0.00 | 0.00 | 0.00 | 100 | 1002.4 |
| 20260901233025 | 49 | 235 | 0.0 | 0.0 | 0.00 | 0.00 | 0.00 | 100 | 1002.4 |
| 20260901232531 | 49 | 257 | 0.0 | 0.0 | 0.00 | 0.00 | 0.00 | 100 | 1002.6 |
| 20260901232033 | 49 | 267 | 0.0 | 0.0 | 0.00 | 0.00 | 0.00 | 100 | 1002.6 |
| 20260901231520 | 49 | 253 | 0.0 | 0.0 | 0.00 | 0.00 | 0.00 | 100 | 1002.6 |
| 20260901231024 | 49 | 208 | 0.0 | 0.0 | 0.00 | 0.00 | 0.00 | 100 | 1002.8 |
| 20260901230533 | 49 | 222 | 0.0 | 0.0 | 0.00 | 0.00 | 0.00 | 100 | 1002.8 |
| 20260901230051 | 49 | 223 | 0.0 | 0.0 | 0.00 | 0.00 | 0.00 | 100 | 1002.8 |
| 20260901225534 | 49 | 276 | 0.0 | 0.0 | 0.00 | 0.00 | 0.00 | 100 | 1002.7 |
| 20260901225027 | 49 | 204 | 0.0 | 0.0 | 0.00 | 0.00 | 0.00 | 100 | 1002.7 |
| 20260901224548 | 50 | 157 | 0.0 | 0.0 | 0.00 | 0.00 | 0.00 | 100 | 1002.7 |
| 20260901224027 | 50 | 208 | 0.0 | 0.0 | 0.00 | 0.00 | 0.00 | 100 | 1002.8 |
| 20260901223535 | 50 | 212 | 0.0 | 0.0 | 0.00 | 0.00 | 0.00 | 100 | 1002.8 |
| 20260901223026 | 49 | 187 | 0.0 | 0.0 | 0.00 | 0.00 | 0.00 | 99 | 1002.8 |
| 20260901222556 | 49 | 185 | 0.0 | 0.0 | 0.00 | 0.00 | 0.00 | 99 | 1002.8 |
| 20260901222055 | 49 | 247 | 0.0 | 0.0 | 0.00 | 0.00 | 0.00 | 99 | 1002.8 |
| 20260901221535 | 49 | 190 | 0.0 | 0.0 | 0.00 | 0.00 | 0.00 | 99 | 1002.8 |
| 20260901221022 | 49 | 206 | 0.0 | 0.0 | 0.00 | 0.00 | 0.00 | 98 | 1002.8 |
| 20260901220538 | 49 | 209 | 0.0 | 0.0 | 0.00 | 0.00 | 0.00 | 98 | 1002.8 |
| 20260901220101 | 49 | 191 | 0.0 | 0.0 | 0.00 | 0.00 | 0.00 | 98 | 1002.8 |
| 20260901215616 | 49 | 233 | 0.0 | 0.0 | 0.00 | 0.00 | 0.00 | 98 | 1002.7 |
| 20260901215031 | 49 | 216 | 0.0 | 0.0 | 0.00 | 0.00 | 0.00 | 98 | 1002.7 |
| 20260901214535 | 49 | 233 | 0.0 | 0.0 | 0.00 | 0.00 | 0.00 | 98 | 1002.7 |
| 20260901214049 | 49 | 219 | 0.0 | 0.0 | 0.00 | 0.00 | 0.00 | 98 | 1002.7 |
| 20260901213530 | 50 | 209 | 0.0 | 0.0 | 0.00 | 0.00 | 0.00 | 98 | 1002.7 |
| 20260901213045 | 50 | 209 | 0.0 | 0.0 | 0.00 | 0.00 | 0.00 | 97 | 1002.7 |
| 20260901212548 | 50 | 209 | 0.0 | 0.0 | 0.00 | 0.00 | 0.00 | 97 | 1002.8 |
| 20260901212033 | 49 | 219 | 0.0 | 0.0 | 0.00 | 0.00 | 0.00 | 97 | 1002.8 |
| 20260901211523 | 49 | 230 | 0.0 | 0.0 | 0.00 | 0.00 | 0.00 | 97 | 1002.8 |
| 20260901211023 | 49 | 219 | 0.0 | 0.0 | 0.00 | 0.00 | 0.00 | 96 | 1002.8 |
| 20260901210537 | 49 | 245 | 0.0 | 0.0 | 0.00 | 0.00 | 0.00 | 96 | 1002.8 |
| 20260901210044 | 49 | 238 | 0.0 | 0.0 | 0.00 | 0.00 | 0.01 | 96 | 1002.8 |
| 20260901205527 | 50 | 206 | 0.0 | 0.0 | 0.00 | 0.00 | 0.01 | 96 | 1002.9 |
| 20260901205029 | 50 | 199 | 0.0 | 0.0 | 0.00 | 0.00 | 0.01 | 96 | 1002.9 |
| 20260901204533 | 50 | 195 | 0.0 | 0.0 | 0.00 | 0.00 | 0.01 | 95 | 1002.9 |
| 20260901204042 | 50 | 218 | 0.0 | 0.0 | 0.00 | 0.00 | 0.01 | 95 | 1002.9 |
| 20260901203528 | 50 | 225 | 0.0 | 0.0 | 0.00 | 0.00 | 0.01 | 94 | 1002.9 |
| 20260901203022 | 50 | 225 | 0.0 | 0.0 | 0.00 | 0.00 | 0.01 | 94 | 1002.9 |
| 20260901202532 | 50 | 219 | 0.0 | 0.0 | 0.00 | 0.00 | 0.01 | 94 | 1002.9 |
| 20260901202035 | 50 | 219 | 0.0 | 0.0 | 0.00 | 0.00 | 0.01 | 93 | 1002.9 |
| 20260901201552 | 51 | 219 | 0.0 | 0.0 | 0.00 | 0.00 | 0.01 | 93 | 1002.9 |
| 20260901201034 | 51 | 218 | 0.0 | 0.0 | 0.00 | 0.00 | 0.01 | 93 | 1002.9 |
| 20260901200534 | 51 | 218 | 0.0 | 0.0 | 0.00 | 0.00 | 0.01 | 93 | 1002.9 |
| 20260901200026 | 51 | 204 | 0.0 | 0.0 | 0.00 | 0.00 | 0.01 | 92 | 1002.9 |
| 20260901195537 | 52 | 204 | 0.0 | 0.0 | 0.00 | 0.00 | 0.01 | 92 | 1002.7 |
| 20260901195022 | 52 | 204 | 0.0 | 0.0 | 0.00 | 0.00 | 0.01 | 92 | 1002.7 |
| 20260901194546 | 52 | 204 | 0.0 | 0.0 | 0.00 | 0.00 | 0.01 | 92 | 1002.7 |
| 20260901194028 | 52 | 230 | 0.0 | 0.0 | 0.00 | 0.00 | 0.01 | 91 | 1002.8 |
| 20260901193530 | 52 | 230 | 0.0 | 0.0 | 0.00 | 0.00 | 0.01 | 91 | 1002.8 |
| 20260901193023 | 53 | 230 | 0.0 | 0.0 | 0.00 | 0.00 | 0.01 | 90 | 1002.8 |
| 20260901192523 | 53 | 230 | 0.0 | 0.0 | 0.00 | 0.00 | 0.01 | 90 | 1002.7 |
| 20260901192057 | 53 | 230 | 0.0 | 0.0 | 0.00 | 0.00 | 0.01 | 91 | 1002.7 |
| 20260901191542 | 53 | 230 | 0.0 | 0.0 | 0.00 | 0.00 | 0.01 | 91 | 1002.7 |
| 20260901191024 | 53 | 230 | 0.0 | 0.0 | 0.00 | 0.00 | 0.01 | 91 | 1002.8 |
| 20260901190541 | 53 | 230 | 0.0 | 0.0 | 0.00 | 0.00 | 0.01 | 91 | 1002.8 |
| 20260901190023 | 53 | 269 | 0.0 | 0.0 | 0.00 | 0.00 | 0.01 | 92 | 1002.8 |
| 20260901185600 | 53 | 228 | 0.0 | 0.0 | 0.00 | 0.00 | 0.01 | 92 | 1002.9 |
| 20260901185020 | 53 | 221 | 0.0 | 0.0 | 0.00 | 0.00 | 0.01 | 92 | 1002.9 |
| 20260901184533 | 53 | 223 | 0.0 | 0.0 | 0.00 | 0.00 | 0.01 | 92 | 1002.9 |
| 20260901184029 | 53 | 223 | 0.0 | 0.0 | 0.00 | 0.00 | 0.01 | 92 | 1002.9 |
| 20260901183550 | 53 | 228 | 0.0 | 0.0 | 0.00 | 0.00 | 0.01 | 92 | 1002.9 |
| 20260901183038 | 53 | 226 | 0.0 | 0.0 | 0.00 | 0.00 | 0.01 | 92 | 1002.9 |
| 20260901182521 | 53 | 166 | 0.0 | 0.0 | 0.00 | 0.00 | 0.01 | 91 | 1002.9 |
| 20260901182022 | 53 | 235 | 0.0 | 0.0 | 0.00 | 0.00 | 0.01 | 90 | 1002.9 |
| 20260901181532 | 53 | 228 | 0.0 | 0.0 | 0.00 | 0.00 | 0.01 | 89 | 1002.9 |
| 20260901181034 | 53 | 209 | 0.0 | 0.0 | 0.00 | 0.00 | 0.01 | 88 | 1002.9 |
| 20260901180537 | 53 | 209 | 0.0 | 0.0 | 0.00 | 0.00 | 0.01 | 87 | 1002.9 |
| 20260901180024 | 54 | 209 | 0.0 | 0.0 | 0.00 | 0.00 | 0.01 | 87 | 1002.9 |
| 20260901175539 | 54 | 209 | 0.0 | 0.0 | 0.00 | 0.00 | 0.01 | 86 | 1002.8 |
| 20260901175034 | 55 | 209 | 0.0 | 0.0 | 0.00 | 0.00 | 0.01 | 85 | 1002.8 |
| 20260901174536 | 55 | 209 | 0.0 | 0.0 | 0.00 | 0.00 | 0.01 | 85 | 1002.8 |
| 20260901174020 | 55 | 209 | 0.0 | 0.0 | 0.00 | 0.00 | 0.01 | 85 | 1002.8 |
| 20260901173538 | 55 | 209 | 0.0 | 0.0 | 0.00 | 0.00 | 0.01 | 85 | 1002.8 |
| 20260901173058 | 56 | 209 | 0.0 | 0.0 | 0.00 | 0.00 | 0.01 | 84 | 1002.9 |
| 20260901172530 | 56 | 209 | 0.0 | 0.0 | 0.00 | 0.00 | 0.01 | 84 | 1002.7 |
| 20260901172050 | 56 | 209 | 0.0 | 0.0 | 0.00 | 0.00 | 0.01 | 83 | 1002.7 |
| 20260901171537 | 57 | 310 | 0.0 | 0.0 | 0.00 | 0.00 | 0.01 | 82 | 1002.7 |
| 20260901171039 | 57 | 218 | 0.0 | 0.0 | 0.00 | 0.00 | 0.01 | 82 | 1002.6 |
| 20260901170520 | 57 | 204 | 0.0 | 0.0 | 0.00 | 0.00 | 0.01 | 81 | 1002.6 |
| 20260901170031 | 58 | 260 | 0.0 | 0.0 | 0.00 | 0.00 | 0.01 | 80 | 1002.6 |
| 20260901165533 | 58 | 355 | 0.0 | 0.0 | 0.00 | 0.00 | 0.01 | 80 | 1002.6 |
| 20260901165045 | 58 | 50 | 0.0 | 0.0 | 0.00 | 0.00 | 0.01 | 79 | 1002.6 |
| 20260901164525 | 59 | 215 | 0.0 | 0.0 | 0.00 | 0.00 | 0.01 | 79 | 1002.6 |
| 20260901164101 | 59 | 252 | 0.0 | 0.0 | 0.00 | 0.00 | 0.01 | 77 | 1002.5 |
| 20260901163529 | 59 | 266 | 0.0 | 0.0 | 0.00 | 0.00 | 0.01 | 76 | 1002.5 |
| 20260901163032 | 60 | 315 | 1.0 | 0.0 | 0.00 | 0.00 | 0.01 | 76 | 1002.5 |
| 20260901162543 | 60 | 311 | 1.0 | 0.0 | 0.00 | 0.00 | 0.01 | 76 | 1002.4 |
| 20260901162036 | 60 | 167 | 1.0 | 0.0 | 0.00 | 0.00 | 0.01 | 76 | 1002.4 |
| 20260901161535 | 61 | 302 | 1.0 | 0.0 | 0.00 | 0.00 | 0.01 | 76 | 1002.4 |
| 20260901161046 | 61 | 342 | 0.0 | 0.0 | 0.00 | 0.00 | 0.01 | 75 | 1002.3 |
| 20260901160555 | 61 | 302 | 0.0 | 0.0 | 0.00 | 0.00 | 0.01 | 75 | 1002.3 |
| 20260901160021 | 61 | 270 | 0.0 | 0.0 | 0.00 | 0.00 | 0.01 | 74 | 1002.3 |
| 20260901155526 | 61 | 326 | 0.0 | 0.0 | 0.00 | 0.00 | 0.01 | 74 | 1002.1 |